Location: Rounton
(54.4000°N, 1.3500°W)
Time: 05:12:21
(UTC+00:00)

S-56A Canister/Altair - Pass Details

Date: 07 December 2021
Orbit: 633 x 2499 km, 38.9° (Epoch: 17 January)

Event Time Altitude Azimuth Distance (km) Brightness Sun altitude
Rises 22:58:23 0° 225° (SW) 5,571 - -56.4°
Reaches altitude 10° 23:03:17 10° 213° (SSW) 4,257 - -56.7°
Maximum altitude 23:11:09 23° 167° (SSE) 2,751 - -57.2°
Drops below altitude 10° 23:17:08 10° 118° (ESE) 3,149 - -57.4°
Sets 23:20:07 0° 104° (ESE) 3,851 - -57.6°
